Cleveland, OH

8:29 AM EDT on May 27, 2017 (GMT -0400)
Cleveland-Hopkins International

Weather History for KCLE - January, 2010

Change the Weather History Date:

Friday, January 1, 2010

  Actual Average Record
Temperature  
Mean Temperature 27 °F 29 °F  
Max Temperature 34 °F 35 °F 69 °F (1876)
Min Temperature 20 °F 22 °F -4 °F (1968)
Degree Days  
Heating Degree Days 38 36  
Month to date heating degree days 38 36  
Since 1 July heating degree days 2037 2143  
Cooling Degree Days 0 0  
Month to date cooling degree days 0 0  
Year to date cooling degree days 0 0  
Moisture  
Dew Point 20 °F    
Average Humidity 75    
Maximum Humidity 89    
Minimum Humidity 60    
Precipitation  
Precipitation 0.13 in 0.10 in 0.81 in (1979)
Month to date precipitation 0.13 0.10  
Year to date precipitation 0.13 0.10  
Snow  
Snow 2.30 in 0.60 in - ()
Month to date snowfall 2.3 0.6  
Since 1 July snowfall 10.4 19.2  
Snow Depth 1.00 in    
Sea Level Pressure  
Sea Level Pressure 30.09 in    
Wind  
Wind Speed 13 mph (West)    
Max Wind Speed 20 mph    
Max Gust Speed 25 mph    
Visibility 5 miles    
Events Snow    
T = Trace of Precipitation, MM = Missing Value Source: NWS Daily Summary

Daily Weather History Graph

Daily Weather History Graph

Search for Another Location

Airport or City:

Trip Planner

Search our weather history database for the weather conditions in past years. The results will help you decide how hot, cold, wet, or windy it might be!

Date:

Astronomy

Jan. 01, 2010 Rise Set
Actual Time 7:53 AM EST 5:08 PM EST
Civil Twilight 7:22 AM EST 5:39 PM EST
Nautical Twilight 6:47 AM EST 6:14 PM EST
Astronomical Twilight 6:14 AM EST 6:48 PM EST
Moon 6:27 PM EST (1/1) 8:38 AM EST (1/1)
Length of Visible Light 10h 17m
Length of Day
9h 14m
Full, 99% of the Moon is Illuminated
Jan 1
Full
Jan 7
Last Quarter
Jan 15
New
Jan 23
First Quarter
Jan 30
Full

Hourly Weather History & Observations

Time (EST) Temp. Windchill Dew Point Humidity Pressure Visibility Wind Dir Wind Speed Gust Speed Precip Events Conditions
12:51 AM 34.0 °F 25.5 °F 30.0 °F 85% 30.03 in 8.0 mi West 11.5 mph - 0.00 in   Light Drizzle
12:57 AM 33.8 °F 26.4 °F 30.2 °F 87% 30.00 in 9.0 mi WSW 9.2 mph - 0.00 in   Light Drizzle
1:05 AM 33.8 °F 25.3 °F 30.2 °F 87% 30.00 in 9.0 mi West 11.5 mph - 0.00 in   Light Drizzle
1:51 AM 34.0 °F 26.0 °F 28.9 °F 82% 30.04 in 10.0 mi WSW 10.4 mph - 0.00 in   Overcast
2:09 AM 33.8 °F 26.4 °F 28.4 °F 81% 30.01 in 10.0 mi WSW 9.2 mph - N/A   Overcast
2:35 AM 33.8 °F 25.8 °F 26.6 °F 75% 30.02 in 10.0 mi WSW 10.4 mph - N/A   Overcast
2:51 AM 33.1 °F 25.5 °F 27.0 °F 78% 30.04 in 10.0 mi WSW 9.2 mph - N/A   Overcast
3:36 AM 30.2 °F 20.2 °F 26.6 °F 86% 30.03 in 8.0 mi West 12.7 mph - 0.00 in Snow Light Snow
3:51 AM 30.0 °F 19.5 °F 26.1 °F 85% 30.06 in 7.0 mi WNW 13.8 mph - 0.00 in Snow Light Snow
4:01 AM 30.2 °F 19.3 °F 26.6 °F 86% 30.04 in 7.0 mi WNW 15.0 mph - 0.00 in Snow Light Snow
4:51 AM 28.0 °F 18.1 °F 24.1 °F 85% 30.07 in 6.0 mi NW 11.5 mph 19.6 mph 0.00 in Snow Light Snow
5:51 AM 26.1 °F 14.0 °F 23.0 °F 88% 30.09 in 3.0 mi West 15.0 mph 23.0 mph 0.00 in Snow Light Snow
6:00 AM 26.6 °F 13.1 °F 21.2 °F 80% 30.07 in 3.0 mi West 19.6 mph 25.3 mph 0.00 in Snow Light Freezing Drizzle
6:24 AM 24.8 °F 12.4 °F 21.2 °F 86% 30.06 in 6.0 mi West 15.0 mph 23.0 mph 0.00 in Snow Light Freezing Drizzle
6:46 AM 24.8 °F 13.4 °F 21.2 °F 86% 30.07 in 7.0 mi West 12.7 mph - 0.00 in Snow Light Freezing Drizzle
6:51 AM 25.0 °F 13.6 °F 19.9 °F 81% 30.10 in 8.0 mi West 12.7 mph 19.6 mph 0.00 in Snow Light Freezing Drizzle
7:09 AM 24.8 °F 12.9 °F 19.4 °F 80% 30.07 in 5.0 mi West 13.8 mph - 0.00 in Snow Light Snow
7:20 AM 24.8 °F 14.0 °F 19.4 °F 80% 30.07 in 4.0 mi West 11.5 mph - 0.00 in Snow Light Snow
7:51 AM 25.0 °F 13.6 °F 19.9 °F 81% 30.11 in 9.0 mi West 12.7 mph - 0.00 in Snow Light Snow
8:05 AM 24.8 °F 14.0 °F 19.4 °F 80% 30.08 in 6.0 mi West 11.5 mph - 0.00 in Snow Light Snow
8:29 AM 24.8 °F 13.4 °F 19.4 °F 80% 30.08 in 2.5 mi West 12.7 mph - 0.00 in Snow Light Snow
8:46 AM 24.8 °F 13.4 °F 19.4 °F 80% 30.08 in 1.8 mi WSW 12.7 mph - 0.00 in Snow Light Snow
8:51 AM 24.1 °F 11.5 °F 19.0 °F 81% 30.11 in 1.8 mi West 15.0 mph - 0.00 in Snow Light Snow
9:51 AM 24.1 °F 11.5 °F 19.9 °F 84% 30.12 in 1.0 mi WSW 15.0 mph - 0.00 in Snow Light Snow
10:24 AM 24.8 °F 12.4 °F 19.4 °F 80% 30.10 in 2.5 mi West 15.0 mph - 0.00 in Snow Light Snow
10:35 AM 24.8 °F 13.4 °F 19.4 °F 80% 30.10 in 4.0 mi West 12.7 mph - 0.00 in Snow Light Snow
10:51 AM 25.0 °F 12.2 °F 19.0 °F 78% 30.13 in 5.0 mi West 16.1 mph - 0.00 in   Haze
11:51 AM 25.0 °F 13.1 °F 19.0 °F 78% 30.12 in 3.0 mi West 13.8 mph - 0.00 in Snow Light Snow
12:15 PM 24.8 °F 12.9 °F 19.4 °F 80% 30.08 in 0.5 mi West 13.8 mph - 0.00 in Snow Snow
12:51 PM 25.0 °F 13.1 °F 19.9 °F 81% 30.10 in 0.8 mi West 13.8 mph - 0.00 in Snow Light Snow
1:43 PM 24.8 °F 12.9 °F 19.4 °F 80% 30.07 in 1.5 mi West 13.8 mph - 0.01 in Snow Light Snow
1:51 PM 25.0 °F 14.2 °F 19.0 °F 78% 30.10 in 2.5 mi West 11.5 mph 21.9 mph 0.01 in Snow Light Snow
1:59 PM 24.8 °F 14.0 °F 19.4 °F 80% 30.07 in 3.0 mi West 11.5 mph - 0.00 in Snow Light Snow
2:08 PM 24.8 °F 12.4 °F 19.4 °F 80% 30.08 in 1.8 mi West 15.0 mph 23.0 mph 0.00 in Snow Light Snow
2:16 PM 24.8 °F 12.9 °F 19.4 °F 80% 30.08 in 3.0 mi West 13.8 mph - 0.00 in Snow Light Snow
2:29 PM 24.8 °F 12.9 °F 19.4 °F 80% 30.08 in 3.0 mi WNW 13.8 mph - 0.00 in Snow Light Snow
2:51 PM 25.0 °F 13.6 °F 17.1 °F 72% 30.12 in 3.0 mi WNW 12.7 mph - 0.00 in Snow Light Snow
2:54 PM 24.8 °F 11.5 °F 17.6 °F 74% 30.09 in 1.8 mi West 17.3 mph - 0.00 in Snow Light Snow
3:06 PM 24.8 °F 11.9 °F 19.4 °F 80% 30.09 in 0.8 mi West 16.1 mph 23.0 mph 0.00 in Snow Light Snow
3:40 PM 24.8 °F 15.3 °F 19.4 °F 80% 30.09 in 1.2 mi West 9.2 mph - 0.01 in Snow Light Snow
3:43 PM 24.8 °F 16.9 °F 19.4 °F 80% 30.09 in 3.0 mi West 6.9 mph 17.3 mph 0.01 in Snow Light Snow
3:51 PM 24.1 °F 12.0 °F 19.9 °F 84% 30.12 in 3.0 mi West 13.8 mph 20.7 mph 0.01 in Snow Light Snow
3:59 PM 24.8 °F 14.6 °F 17.6 °F 74% 30.10 in 1.8 mi WNW 10.4 mph 20.7 mph 0.00 in Snow Light Snow
4:18 PM 24.8 °F 13.4 °F 17.6 °F 74% 30.09 in 6.0 mi WNW 12.7 mph 18.4 mph 0.00 in   Haze
4:32 PM 24.8 °F 11.1 °F 14.0 °F 64% 30.09 in 10.0 mi WNW 18.4 mph 24.2 mph 0.00 in   Overcast
4:51 PM 25.0 °F 15.5 °F 14.0 °F 63% 30.12 in 7.0 mi WNW 9.2 mph - 0.00 in Snow Light Snow
5:51 PM 25.0 °F 16.3 °F 14.0 °F 63% 30.13 in 10.0 mi WNW 8.1 mph - 0.00 in   Overcast
6:51 PM 25.0 °F 16.3 °F 17.1 °F 72% 30.13 in 10.0 mi NW 8.1 mph - N/A   Overcast
7:51 PM 25.0 °F 14.2 °F 12.9 °F 60% 30.14 in 10.0 mi WNW 11.5 mph 19.6 mph N/A   Overcast
8:51 PM 24.1 °F 12.0 °F 14.0 °F 65% 30.14 in 10.0 mi NW 13.8 mph 21.9 mph N/A   Overcast
9:07 PM 24.8 °F 12.4 °F 12.2 °F 59% 30.10 in 6.0 mi NW 15.0 mph - 0.00 in Snow Light Snow
9:34 PM 23.0 °F 11.7 °F 15.8 °F 74% 30.10 in 1.5 mi NW 11.5 mph - 0.00 in Snow Light Snow
9:51 PM 21.2 °F 7.8 °F 17.6 °F 86% 30.10 in 1.0 mi NNW 15.0 mph 20.7 mph N/A Snow Light Snow
10:03 PM 21.2 °F 7.8 °F 17.6 °F 86% 30.10 in 0.8 mi NNW 15.0 mph - 0.00 in Snow Light Snow
10:13 PM 21.2 °F 10.1 °F 15.8 °F 80% 30.10 in 1.5 mi NNW 10.4 mph - 0.00 in Snow Light Snow
10:28 PM 21.2 °F 7.8 °F 12.2 °F 68% 30.10 in 1.5 mi NW 15.0 mph - 0.00 in Snow Light Snow
10:51 PM 21.0 °F 8.6 °F 12.9 °F 71% 30.14 in 1.5 mi NW 12.7 mph 25.3 mph 0.00 in Snow Light Snow
11:22 PM 21.2 °F 7.8 °F 12.2 °F 68% 30.11 in 1.5 mi NW 15.0 mph - 0.00 in Snow Light Snow
11:51 PM 19.9 °F 6.2 °F 10.9 °F 68% 30.15 in 1.5 mi NW 15.0 mph - 0.00 in Snow Light Snow